Location: Lucens
(46.7085°N, 6.8396°E)
Time: 07:59:34
(UTC+00:00)

Daily predictions for brighter satellites

Satellite Brightness Start Highest point End
(mag) Time Altitude Azimuth Time Altitude Azimuth Time Altitude Azimuth
AQUARIUS 4.2 16:44:10 10° SSE 16:48:37 66° ENE 16:53:06 10° N
PAYLOAD B 4.4 16:43:14 10° SSE 16:48:44 85° WSW 16:54:18 10° NNW
Cosmos 2297 Rocket 4.2 16:45:02 10° W 16:49:20 22° NW 16:53:39 10° N
Cosmos 1603 3.8 16:44:52 10° NNW 16:50:37 86° ENE 16:56:21 10° SSE
Meteor 2-10 Rocket 4.4 16:46:28 10° N 16:51:18 30° ENE 16:55:56 10° SE
CZ-2D R/B 4.3 16:53:23 10° ESE 16:56:32 24° ENE 16:59:41 10° NNE
Cosmos 1606 Rocket 3.8 16:52:29 10° N 16:56:45 48° ENE 17:01:00 10° SSE
H-2A R/B 2.1 16:54:08 10° NNE 16:58:36 66° ESE 17:02:56 10° S
Cosmos 1892 Rocket 4.4 16:55:32 10° SSE 16:59:16 29° E 17:03:00 10° NNE
YAOGAN 1 4.0 16:56:32 10° ESE 16:59:21 17° ENE 17:02:10 10° NNE
USA 234 4.1 16:53:43 10° ENE 16:59:34 36° N 17:05:25 10° WNW
ATLAS 5 CENTAUR R/B 1.5 16:56:47 10° SW 17:00:46 87° NW 17:05:19 10° NE
FengYun 1-2 T 4.2 16:55:46 10° SSE 17:01:18 74° ENE 17:06:55 10° N
CZ-4C R/B 3.2 16:59:20 10° N 17:02:27 63° WNW 17:05:35 10° SSW
Tsikada Rocket 4.4 16:56:30 10° SSW 17:02:48 70° W 17:09:04 10° N
NOAA 12 4.3 16:58:00 10° SSE 17:03:14 80° WSW 17:08:31 10° NNW
SL-14 R/B 3.2 17:00:46 10° S 17:04:37 83° E 17:08:33 10° N
RESURS DK-1 3.1 17:02:11 10° SW 17:06:14 52° WNW 17:10:17 10° NNE
MOS 1 Rocket 4.2 17:04:19 10° NE 17:07:52 24° E 17:11:22 10° SSE
ATLAS 3B R/B 3.6 17:01:37 10° NW 17:08:25 58° WSW 17:15:29 10° SSE
Cosmos 2228 2.9 17:04:30 10° N 17:08:46 71° E 17:13:02 10° SSE
BREEZE-M DEB (TANK) 4.3 17:07:36 10° W 17:10:02 22° SSW 17:12:38 10° SSE
Cosmos 2142 Rocket 4.4 17:04:40 10° N 17:10:51 74° E 17:16:58 10° SSE
Meteor 2-5 Rocket 3.7 17:07:56 10° S 17:13:31 89° ESE 17:19:05 10° NNE
SKYMED 2 4.1 17:09:52 10° NNE 17:13:54 37° E 17:17:55 10° SSE
CZ-4C R/B 3.3 17:09:34 10° WSW 17:14:24 38° NW 17:20:12 10° NNE
Cosmos 1538 Rocket 4.2 17:10:10 10° NNW 17:15:12 48° ENE 17:20:11 10° SE
Aureole 3 4.4 17:13:00 10° NNE 17:15:24 17° ENE 17:17:34 10° ESE
SJ 16-02 2.7 17:13:15 10° SE 17:16:29 20° E 17:18:57 13° ENE
CZ-3B R/B 2.5 17:14:34 10° NW 17:16:39 28° NNE 17:20:09 12° E
Cosmos 1777 Rocket 4.1 17:14:28 10° S 17:19:35 56° ESE 17:24:46 10° NNE
Cosmos 2263 Rocket 2.6 17:15:52 10° SW 17:21:31 67° WNW 17:27:11 10° NNE
Cosmos 1455 3.1 17:22:56 10° NNE 17:26:10 26° ENE 17:29:24 10° SE
Cosmos 2058 Rocket 3.2 17:23:48 10° N 17:28:12 51° ENE 17:32:35 10° SSE
Cosmos 1300 3.5 17:26:42 10° NNW 17:30:27 55° W 17:34:11 10° S
X-37B 2.5 17:29:29 10° SSW 17:31:49 19° SSE 17:33:14 15° ESE
ARGOS 3.8 17:32:59 10° ESE 17:37:36 31° ENE 17:42:15 10° N
Okean 1-7 Rocket 3.8 17:36:18 10° S 17:40:42 52° E 17:45:09 10° NNE
CREW DRAGON DEMO-1 DEB 3.4 17:38:23 10° WNW 17:41:08 37° NNE 17:41:52 31° NE
Lacrosse 5 1.9 17:36:18 10° NW 17:41:18 58° NNE 17:45:00 18° ESE
NOSS 3-1 (C) 4.5 17:34:54 10° NNW 17:41:33 39° NE 17:47:11 18° E
Cosmos 1726 Rocket 3.8 17:39:24 10° NNW 17:43:45 71° W 17:48:07 10° S
ISS -2.7 17:41:00 10° SSW 17:44:01 31° SE 17:45:00 26° ESE
ERS-2 2.4 17:42:03 17° NNE 17:44:36 44° E 17:48:05 10° S
Cosmos 1939 Rocket 3.3 17:40:31 10° S 17:44:37 66° W 17:48:42 10° NNW
CZ-2C R/B 3.8 17:45:49 21° E 17:46:12 21° E 17:50:23 10° SE
PSLV R/B 4.4 17:43:31 13° NNE 17:46:58 42° E 17:50:57 10° S
EXPRESS MD2 4.3 17:38:22 10° WNW 17:47:02 80° SSW 17:50:21 17° ESE
Meteor 1-24 Rocket 4.1 17:42:25 10° SSW 17:47:42 60° WNW 17:52:58 10° N
COSMOS 2455 2.8 17:42:51 10° SSW 17:48:51 77° ESE 17:54:02 15° NE
Cosmos 1626 Rocket 4.1 17:47:59 10° SSE 17:51:58 36° E 17:54:01 23° NE
Cosmos 1844 4.0 17:48:36 10° S 17:53:54 43° ESE 17:57:10 22° NE
Cosmos 1833 Rocket 4.0 17:50:39 10° N 17:54:37 19° NE 17:54:41 19° NE
IRS-1C Rocket 4.0 17:50:09 10° SSE 17:55:25 87° ENE 18:00:42 10° NNW
Cosmos 2082 Rocket 4.0 17:53:25 10° N 17:55:56 14° NNE 17:55:56 14° NNE
CZ-4 R/B 1.3 17:52:49 10° SSE 17:56:54 68° ENE 18:00:56 10° N
USA 229 DEB 4.5 17:51:53 10° NNW 17:58:27 37° NNE 18:01:49 25° ENE
USA 229 4.5 17:51:59 10° NNW 17:58:32 36° NNE 18:01:52 25° ENE
COSMO-SKYMED 1 2.8 17:57:46 10° N 18:02:07 72° WNW 18:06:26 10° SSW
USA 267 4.2 18:04:12 24° E 18:06:05 28° SE 18:11:33 10° S
CZ-4B R/B 2.9 18:09:03 10° N 18:12:12 36° WNW 18:15:17 10° SW
Okean-O 2.5 18:08:35 10° SSE 18:13:01 89° E 18:17:30 10° NNW
NOSS 3-1 (A) 4.5 18:07:25 10° NNW 18:14:06 39° NE 18:16:57 31° ENE
CZ-2C R/B 3.6 18:09:21 10° S 18:14:34 64° W 18:20:07 10° NNW
Cosmos 1844 Rocket 2.6 18:10:11 10° SSW 18:15:50 78° ESE 18:19:24 24° NNE
Okean O Rocket 4.4 18:13:01 10° SW 18:16:18 20° W 18:19:34 10° NW
Cosmos 923 Rocket 3.9 18:11:35 10° NNW 18:16:57 72° ENE 18:22:15 10° SSE
H-2A R/B 1.9 18:12:00 10° SSE 18:16:58 84° ENE 18:22:06 10° NNW
OE (NEXTSAT) 4.2 18:14:16 10° WSW 18:17:42 72° S 18:17:46 72° SSE
Meteor 1-21 Rocket 4.0 18:12:59 10° S 18:18:28 74° E 18:24:02 10° NNE
Cosmos 1689 Rocket 3.1 18:20:01 38° SSW 18:20:01 38° SSW 18:21:53 10° SSW
Aureole 2 Rocket 2.5 18:16:14 10° SSW 18:19:12 57° WNW 18:19:29 54° NW
ATLAS 2AS CENTAUR R/B 4.3 18:13:02 10° W 18:19:53 31° NNW 18:25:30 14° NNE
Cosmos 158 Rocket 3.9 18:17:00 10° NNW 18:22:22 86° ENE 18:27:45 10° SSE
Meteor 2-8 Rocket 4.4 18:16:47 10° N 18:22:48 58° ENE 18:28:47 10° SSE
Cosmos 1898 Rocket 4.0 18:19:18 10° S 18:23:42 39° ESE 18:23:42 39° ESE
Cosmos 1680 Rocket 3.4 18:19:07 10° NNW 18:24:22 64° ENE 18:26:36 33° SE
Cosmos 1627 Rocket 4.4 18:24:21 10° S 18:30:23 60° E 18:36:32 10° NNE
Cosmos 2098 Rocket 4.4 18:24:58 10° SSE 18:31:44 52° E 18:38:54 10° NNE
Cosmos 1602 Rocket 3.5 18:27:40 10° S 18:31:35 64° SE 18:31:35 64° SE
SAR-Lupe-4 4.0 18:31:27 42° NNW 18:32:24 59° WNW 18:35:54 10° SSW
Cosmos 1818 3.5 18:27:24 10° SW 18:32:51 85° NW 18:34:52 40° NNE
YAOGAN 1 3.2 18:30:47 10° S 18:35:01 57° W 18:39:19 10° NNW
Cosmos 1428 Rocket 4.4 18:29:13 10° S 18:35:23 61° E 18:41:37 10° NNE
CSL-04 Rocket 3.6 18:33:25 10° SSE 18:38:48 88° ENE 18:44:19 10° NNW
Helios 1A Rocket 3.4 18:35:50 10° S 18:39:55 61° WSW 18:44:03 10° NNW
USA 234 3.6 18:40:20 42° NE 18:41:46 49° NNE 18:48:02 10° NW
Cosmos 1092 Rocket 3.9 18:39:17 10° S 18:45:30 87° W 18:51:43 10° N
ATLAS 5 CENTAUR R/B 3.7 18:43:01 10° WNW 18:46:10 19° NNW 18:47:38 17° N
Iridium 4 Rocket 3.5 18:41:00 10° N 18:46:46 90° E 18:52:03 10° S
Cosmos 1812 Rocket 4.0 18:45:25 10° NNW 18:48:54 54° NNW 18:48:54 54° NNW
Cosmos 2344 4.2 18:44:54 10° NW 18:54:01 69° NE 18:59:35 37° ESE
SJ 16-02 2.4 18:50:32 10° SW 18:54:44 44° WNW 18:55:59 35° NNW
Cosmos 1455 4.5 18:58:33 10° NW 19:01:41 24° W 19:04:48 10° SW
Cosmos 2112 Rocket 4.1 18:56:33 10° NNW 19:01:49 75° WSW 19:02:18 69° SSW
CZ-4C R/B 4.3 19:00:46 10° NW 19:04:52 19° N 19:06:30 17° N
X-37B 3.7 19:04:57 10° WSW 19:05:31 14° WSW 19:05:31 14° WSW
COSMOS 2406 4.0 19:10:56 10° NNW 19:14:49 43° N 19:14:49 43° N
ARGOS 4.2 19:12:39 10° SSW 19:17:42 42° W 19:22:49 10° NNW
ISS -0.5 19:17:22 10° W 19:17:58 14° W 19:17:58 14° W
Lacrosse 5 3.2 19:19:34 10° WNW 19:24:05 34° SW 19:24:15 34° SW
CZ-2C R/B 3.1 19:27:19 60° W 19:27:19 60° W 19:32:23 10° SSW
NOSS 3-1 (C) 4.1 19:25:35 10° NW 19:33:06 75° SW 19:34:40 61° S
Cosmos 1553 Rocket 4.3 19:30:45 10° NNW 19:36:14 62° NW 19:36:14 62° NW
Cosmos 1833 Rocket 4.1 19:33:43 10° NNW 19:36:25 29° NNW 19:36:25 29° NNW
Cosmos 2082 Rocket 4.1 19:36:02 10° NNW 19:37:48 20° NNW 19:37:48 20° NNW
USA 267 3.8 19:51:34 50° SW 19:51:34 50° SW 19:56:12 10° SW
USA 229 DEB 4.0 19:42:45 10° NW 19:49:18 70° WNW 19:49:18 70° WNW
USA 229 4.0 19:42:51 10° NW 19:49:20 70° WNW 19:49:20 70° WNW
NOSS 3-1 (A) 4.3 19:58:09 10° NW 20:04:26 64° WNW 20:04:26 64° WNW
